Weather History for KIYA - November, 2013

Change the Weather History Date:

Saturday, November 2, 2013

  Actual Average (KARA) Record (KARA)
Temperature  
Mean Temperature 62 °F 65 °F  
Max Temperature 73 °F 77 °F 88 °F (1978)
Min Temperature 51 °F 54 °F 33 °F (1993)
Degree Days  
Heating Degree Days 3 3  
Month to date heating degree days 6  
Since 1 July heating degree days 40  
Cooling Degree Days 0 3  
Month to date cooling degree days 6  
Year to date cooling degree days 2751  
Growing Degree Days 12 (Base 50)    
Moisture  
Dew Point 43 °F    
Average Humidity 58    
Maximum Humidity 100    
Minimum Humidity 17    
Precipitation  
Precipitation 0.00 in 0.09 in 1.94 in (1995)
Month to date precipitation 0.18  
Year to date precipitation 50.62  
Sea Level Pressure  
Sea Level Pressure 30.07 in    
Wind  
Wind Speed 5 mph (NNW)    
Max Wind Speed 17 mph    
Max Gust Speed 24 mph    
Visibility 10 miles    
Events      
T = Trace of Precipitation, MM = Missing Value Source: NWS Daily Summary

Daily Weather History Graph

Daily Weather History Graph

Search for Another Location

Airport or City:

Trip Planner

Search our weather history database for the weather conditions in past years. The results will help you decide how hot, cold, wet, or windy it might be!

Date:

Astronomy

Nov. 02, 2013 Rise Set
Actual Time 7:23 AM CDT 6:20 PM CDT
Civil Twilight 6:58 AM CDT 6:44 PM CDT
Nautical Twilight 6:30 AM CDT 7:13 PM CDT
Astronomical Twilight 6:01 AM CDT 7:41 PM CDT
Moon 6:23 AM CDT (11/2) 5:50 PM CDT (11/2)
Length of Visible Light 11h 46m
Length of Day
10h 57m
Waning Crescent, 1% of the Moon is Illuminated
Nov 2
Waning Crescent
Nov 3
New
Nov 9
First Quarter
Nov 17
Full
Nov 25
Last Quarter

Hourly Weather History & Observations

Time (CDT) Temp. Dew Point Humidity Pressure Visibility Wind Dir Wind Speed Gust Speed Precip Events Conditions
12:15 AM - - N/A% 29.95 in 10.0 mi East 3.5 mph - N/A   Clear
12:35 AM - - N/A% 29.94 in 10.0 mi Calm Calm - N/A   Clear
12:55 AM - - N/A% 29.94 in 7.0 mi Calm Calm - N/A   Clear
1:15 AM - - N/A% 29.94 in 10.0 mi Calm Calm - N/A   Clear
1:35 AM - - N/A% 29.95 in 10.0 mi Calm Calm - N/A   Mostly Cloudy
1:55 AM - - N/A% 29.95 in 10.0 mi Calm Calm - N/A   Scattered Clouds
2:15 AM - - N/A% 29.95 in 10.0 mi Calm Calm - N/A   Mostly Cloudy
2:35 AM - - N/A% 29.99 in 10.0 mi NW 6.9 mph - N/A   Overcast
2:55 AM - - N/A% 29.99 in 10.0 mi Calm Calm - N/A   Overcast
3:15 AM 60.3 °F 60.3 °F 100% 29.99 in 10.0 mi Calm Calm - N/A   Overcast
3:35 AM 60.3 °F 60.3 °F 100% 29.99 in 10.0 mi Calm Calm - N/A   Mostly Cloudy
3:55 AM 60.8 °F 60.8 °F 100% 30.00 in 10.0 mi Calm Calm - N/A   Scattered Clouds
4:15 AM 61.5 °F 58.8 °F 91% 29.99 in 10.0 mi Calm Calm - N/A   Scattered Clouds
4:35 AM 60.1 °F 60.1 °F 100% 29.99 in 10.0 mi NW 3.5 mph - N/A   Scattered Clouds
4:55 AM 57.6 °F 57.6 °F 100% 30.00 in 10.0 mi WNW 3.5 mph - N/A   Clear
5:15 AM 58.3 °F 58.3 °F 100% 30.00 in 10.0 mi South 3.5 mph - N/A   Clear
5:35 AM 57.0 °F 57.0 °F 100% 30.00 in 10.0 mi Calm Calm - N/A   Scattered Clouds
5:55 AM 57.4 °F 57.4 °F 100% 30.00 in 10.0 mi Calm Calm - N/A   Scattered Clouds
6:15 AM 57.6 °F 57.6 °F 100% 30.02 in 10.0 mi Calm Calm - N/A   Scattered Clouds
6:35 AM 56.3 °F 56.3 °F 100% 30.02 in 10.0 mi West 3.5 mph - N/A   Clear
6:55 AM 56.3 °F 56.3 °F 100% 30.02 in 10.0 mi Calm Calm - N/A   Clear
7:15 AM - - N/A% 30.03 in 10.0 mi NNW 3.5 mph - N/A   Clear
7:35 AM 57.2 °F 57.2 °F 100% 30.04 in 10.0 mi North - - N/A   Clear
7:55 AM 57.7 °F 57.7 °F 100% 30.05 in 10.0 mi NW 3.5 mph - N/A   Clear
8:15 AM 59.9 °F 59.9 °F 100% 30.05 in 10.0 mi NNW 6.9 mph - N/A   Clear
8:35 AM 61.2 °F 59.5 °F 94% 30.06 in 10.0 mi NNW 10.4 mph - N/A   Clear
8:55 AM 62.1 °F 54.9 °F 77% 30.07 in 10.0 mi NNW 10.4 mph 16.1 mph N/A   Clear
9:15 AM 63.0 °F 54.1 °F 73% 30.08 in 10.0 mi NNW 10.4 mph 16.1 mph N/A   Clear
9:35 AM 63.9 °F 52.0 °F 65% 30.09 in 10.0 mi NNW 11.5 mph 19.6 mph N/A   Clear
9:55 AM 65.3 °F 50.0 °F 58% 30.10 in 10.0 mi North 10.4 mph - N/A   Clear
10:15 AM 66.6 °F 47.3 °F 50% 30.11 in 10.0 mi North 11.5 mph 17.3 mph N/A   Clear
10:35 AM 67.6 °F 44.6 °F 43% 30.11 in 10.0 mi North 13.8 mph 21.9 mph N/A   Clear
10:55 AM 68.9 °F 43.9 °F 40% 30.11 in 10.0 mi North 12.7 mph 18.4 mph N/A   Clear
12:15 PM 72.0 °F 39.6 °F 31% 30.12 in 10.0 mi North 15.0 mph 21.9 mph N/A   Clear
12:35 PM 72.1 °F 38.3 °F 29% 30.11 in 10.0 mi NNE 12.7 mph 21.9 mph N/A   Clear
12:55 PM 72.9 °F 36.9 °F 27% 30.10 in 10.0 mi North 12.7 mph 18.4 mph N/A   Clear
1:15 PM 73.4 °F 36.3 °F 26% 30.10 in 10.0 mi NNW 17.3 mph - N/A   Clear
1:35 PM 73.4 °F 33.4 °F 23% 30.09 in 10.0 mi NNW 13.8 mph 19.6 mph N/A   Clear
1:55 PM 73.4 °F 30.7 °F 21% 30.08 in 10.0 mi North 15.0 mph 24.2 mph N/A   Clear
2:15 PM 73.6 °F 29.3 °F 19% 30.08 in 10.0 mi North 11.5 mph 19.6 mph N/A   Clear
2:35 PM 73.0 °F 26.1 °F 17% 30.08 in 10.0 mi North 13.8 mph 23.0 mph N/A   Clear
2:55 PM 73.2 °F 25.9 °F 17% 30.07 in 10.0 mi North 12.7 mph 18.4 mph N/A   Clear
3:15 PM 73.8 °F 27.5 °F 18% 30.06 in 10.0 mi NNW 15.0 mph 23.0 mph N/A   Clear
3:35 PM 73.0 °F 26.4 °F 18% 30.07 in 10.0 mi NNW 16.1 mph 21.9 mph N/A   Clear
3:55 PM 72.7 °F 27.1 °F 18% 30.07 in 10.0 mi North 17.3 mph 23.0 mph N/A   Clear
4:15 PM 72.5 °F 28.0 °F 19% 30.07 in 10.0 mi NNW 12.7 mph 19.6 mph N/A   Clear
4:35 PM 72.1 °F 28.4 °F 20% 30.08 in 10.0 mi North 11.5 mph 20.7 mph N/A   Clear
4:55 PM 71.6 °F 28.2 °F 20% 30.08 in 10.0 mi NNW 10.4 mph - N/A   Clear
5:15 PM 70.7 °F 29.3 °F 21% 30.08 in 10.0 mi NNW 8.1 mph - N/A   Clear
5:35 PM 69.3 °F 27.1 °F 21% 30.08 in 10.0 mi NNW 8.1 mph - N/A   Clear
5:55 PM 66.4 °F 31.8 °F 28% 30.09 in 10.0 mi NNW 4.6 mph - N/A   Clear
6:15 PM 63.7 °F 36.0 °F 36% 30.10 in 10.0 mi NW 3.5 mph - N/A   Clear
6:35 PM 61.3 °F 38.3 °F 43% 30.11 in 10.0 mi NW 4.6 mph - N/A   Clear
6:55 PM 59.7 °F 39.7 °F 48% 30.12 in 10.0 mi NW 4.6 mph - N/A   Clear
7:15 PM 58.8 °F 38.3 °F 47% 30.13 in 10.0 mi NW 4.6 mph - N/A   Clear
7:35 PM 57.0 °F 39.2 °F 51% 30.14 in 10.0 mi NW 5.8 mph - N/A   Clear
7:55 PM 56.8 °F 39.7 °F 53% 30.15 in 10.0 mi NW 3.5 mph - N/A   Clear
8:15 PM 57.4 °F 37.4 °F 47% 30.16 in 10.0 mi NNW 6.9 mph - N/A   Clear
8:35 PM 56.1 °F 37.9 °F 51% 30.16 in 10.0 mi NW 5.8 mph - N/A   Clear
8:55 PM 54.3 °F 39.2 °F 57% 30.17 in 10.0 mi NW 5.8 mph - N/A   Clear
9:15 PM 53.6 °F 39.4 °F 59% 30.18 in 10.0 mi NW 6.9 mph - N/A   Clear
9:35 PM 53.8 °F 41.4 °F 63% 30.18 in 10.0 mi NNW 5.8 mph - N/A   Clear
9:55 PM 54.0 °F 41.5 °F 63% 30.18 in 10.0 mi NNW 4.6 mph - N/A   Clear
10:15 PM 53.4 °F 41.9 °F 65% 30.19 in 10.0 mi NNW 4.6 mph - N/A   Clear
10:35 PM 53.8 °F 42.1 °F 65% 30.19 in 10.0 mi NNW 4.6 mph - N/A   Clear
10:55 PM 53.2 °F 42.4 °F 67% 30.19 in 10.0 mi NNW 3.5 mph - N/A   Clear
11:15 PM 52.7 °F 42.6 °F 69% 30.20 in 10.0 mi NW 5.8 mph - N/A   Clear
11:35 PM 51.8 °F 43.5 °F 73% 30.19 in 10.0 mi NNW 5.8 mph - N/A   Clear
11:55 PM 51.3 °F 43.3 °F 74% 30.19 in 10.0 mi NNW 8.1 mph - N/A   Clear